Location: ???????
(60.4260°N, 46.9069°E)
Time: 22:19:38
(UTC+00:00)

ADEOS II - Pass Details

Date: 30 March 2020
Orbit: 799 x 802 km, 98.5° (Epoch: 25 May)

Event Time Altitude Azimuth Distance (km) Brightness Sun altitude
Rises 01:34:52 0° 18° (NNE) 3,329 5.9 -6.5°
Reaches altitude 10° 01:37:31 10° 7° (N) 2,395 4.9 -6.2°
Maximum altitude 01:41:50 27° 312° (NW) 1,527 3.3 -5.7°
Drops below altitude 10° 01:46:09 10° 257° (WSW) 2,383 3.9 -5.2°
Enters shadow 01:47:09 - 251° (WSW) 2,719 4.1 -5.1°
